Main page
METAR-TAF:

METAR-TAF

Airports :

Bushehr Airport

Bushehr, Iran

latitude: 28-59N, longitude: 050-50E, elevation: 19 m

Current weather observation

The report was made 1 hour and 2 minutes ago, at 23:51 UTC
Wind 4 kt from the South/Southeast
Temperature 15°C
Humidity 72%
Pressure 1014 hPa
Visibility 10 km or more
no clouds below 1500 m and no cumulonimbus

METAR: OIBB 252351Z 16004KT CAVOK 15/10 Q1013 A2993

Time: 05:23 (00:53 UTC)


TAF: missing

Weather observations and forecasts of more than 4000 airports (METAR and TAF reports).

The available stations are represented by yellow and red dots on the map.

Hover mouse over dot to see the name of the station.

Then click to see weather observations and forecasts.

To change the map : click on the green buttons with a black cross to zoom in, on the green button with a dash to zoom out, or on the green arrows for adjacent maps.


METAR-TAF: